Regional Weather Roundup
Issued by NWS Memphis, TN

Home | Current Version | Previous Version | Text Only | Print | Product List | Glossary On
Versions: 1 2 3 4 5 6 7 8 9 10 11 12 13 14 15 16 17 18 19 20 21 22 23 24 25 26 27 28 29 30 31 32 33 34 35 36 37 38 39 40 41 42 43 44 45 46 47 48 49 50
727
ASUS44 KMEG 231910
RWRMEG
MEMPHIS CWA HOURLY WEATHER ROUNDUP
NATIONAL WEATHER SERVICE MEMPHIS TN
200 PM CDT SAT JUL 23 2016

...WEST TENNESSEE...

CITY           SKY/WX    TMP DP  RH WIND       PRES   REMARKS
MEMPHIS INTL   CLOUDY    84  70  62 S10       29.98F
NWS MEMPHIS      N/A     82 N/A N/A MISG        N/A
JACKSON        MOSUNNY   89  74  60 CALM      29.97F HX  98
LEXINGTON      MOSUNNY   93  75  55 W6        29.97S HX 104
DYERSBURG      MOSUNNY  N/A N/A N/A MISG        N/A
UNION CITY     PTSUNNY   90  75  62 VRB3      29.97R HX 100
PARIS          MOSUNNY   88  73  62 VRB3      30.00S HX  96


...EASTERN ARKANSAS...

CITY           SKY/WX    TMP DP  RH WIND       PRES   REMARKS
JONESBORO      CLOUDY    91  80  70 SE8       29.95S HX 109
WEST MEMPHIS   PTSUNNY   86  73  65 S13       29.96F HX  93
BATESVILLE     SUNNY     99  75  47 NE6       29.93F HX 111
NEWPORT        MOSUNNY   97  79  56 VRB5      29.95F HX 115
WALNUT RIDGE   SUNNY     93  73  52 E5        29.93F HX 102
BLYTHEVILLE    MOSUNNY   89  78  70 S6        29.97S HX 103
SEARCY         SUNNY     99  76  47 VRB5      29.94F HX 113
STUTTGART      MOSUNNY   99  75  47 W6        29.94F HX 111
PINE BLUFF     SUNNY     96  76  52 SW6       29.94F HX 109
MONTICELLO     MOSUNNY   98  75  47 VRB5      29.95F HX 110


...NORTH MISSISSIPPI...

CITY           SKY/WX    TMP DP  RH WIND       PRES   REMARKS
TUPELO         LGT RAIN  76  73  91 SW5       29.99F
OXFORD         CLOUDY    73  73 100 S6        30.01F
BATESVILLE     PTSUNNY   79  74  85 SE6       29.99F
OLIVE BRANCH   PTSUNNY  N/A N/A N/A S9        29.98F
TUNICA         PTSUNNY   86  73  66 S10       29.98F HX  93
CLARKSDALE     MOSUNNY   86  79  79 SE13      29.99F HX  99
CORINTH        CLOUDY    82  73  74 S7        29.99F
GREENWOOD      MOSUNNY   89  72  56 NE12      29.99F HX  96
COLUMBUS       CLOUDY    79  77  94 N6        29.99F


...SOUTHEAST MISSOURI...

CITY           SKY/WX    TMP DP  RH WIND       PRES   REMARKS
KENNETT        MOSUNNY   90  77  66 SE5       29.95S HX 102
WEST PLAINS    SUNNY     94  72  48 VRB6      30.02S HX 102
POPLAR BLUFF   MOSUNNY   90  76  63 E6        29.96S HX 101
CAPE GIRARDEAU PTSUNNY   90  74  59 S6        29.97S HX  99


...NORTHWEST ALABAMA...

CITY           SKY/WX    TMP DP  RH WIND       PRES   REMARKS
MUSCLE SHOALS  CLOUDY    91  74  57 SW10      29.99F HX 100


...MIDDLE TENNESSEE...

CITY           SKY/WX    TMP DP  RH WIND       PRES   REMARKS
NASHVILLE      PTSUNNY   88  72  58 W5        29.98S HX  94
CLARKSVILLE    PTSUNNY   92  74  55 S3        29.98S HX 101
COLUMBIA       SUNNY     95  73  49 CALM      29.97S HX 105


...WESTERN KENTUCKY...

CITY           SKY/WX    TMP DP  RH WIND       PRES   REMARKS
PADUCAH        MOSUNNY   90  74  59 VRB3      29.97F HX  99
FORT CAMPBELL  MOSUNNY   91  77  63 SW5       29.98S HX 103


...CENTRAL ARKANSAS...

CITY           SKY/WX    TMP DP  RH WIND       PRES   REMARKS
LITTLE ROCK    MOSUNNY   97  74  47 SE7       29.93F HX 108


SKY/WX REPORTED AS FAIR MEANS FEW OR NO CLOUDS BELOW
12 THOUSAND FEET.





USA.gov is the U.S. government's official web portal to all federal, state and local government web resources and services.